Location: Buffign�court
(47.8126°N, 6.0176°E)
Time: 23:50:36
(UTC+00:00)

Cosmos 2322 - Visible Passes

Search period start: 23 October 2021 00:00
Search period end: 02 November 2021 00:00
Orbit: 840 x 855 km, 71.0° (Epoch: 23 October)

Date Brightness Start Highest point End Pass type
(mag) Time Alt. Az. Time Alt. Az. Time Alt. Az.
23 Oct 6.4 02:20:45 10° N 02:23:15 13° NNE 02:25:44 10° ENE visible
23 Oct 4.7 04:03:28 10° NNW 04:08:58 47° NE 04:14:26 10° SE visible
23 Oct 5.5 18:59:13 10° S 19:00:36 18° S 19:00:36 18° S visible
24 Oct 6.5 02:07:29 10° N 02:09:55 13° NNE 02:12:21 10° ENE visible
24 Oct 4.7 03:50:10 10° NNW 03:55:40 46° NE 04:01:06 10° SE visible
24 Oct 4.4 05:34:39 10° NW 05:39:41 33° WSW 05:44:40 10° SSW visible
24 Oct 4.5 18:45:56 10° S 18:49:21 34° SSE 18:49:21 34° SSE visible
24 Oct 6.2 20:30:35 10° WSW 20:31:24 14° WSW 20:31:24 14° WSW visible
25 Oct 6.5 01:54:13 10° N 01:56:36 12° NNE 01:58:57 10° NE visible
25 Oct 4.7 03:36:52 10° NNW 03:42:21 45° NE 03:47:46 10° SE visible
25 Oct 4.4 05:21:21 10° NW 05:26:24 34° WSW 05:31:24 10° SSW visible
25 Oct 3.9 18:32:39 10° S 18:38:00 47° ESE 18:38:00 47° ESE visible
25 Oct 5.6 20:17:14 10° WSW 20:20:02 25° W 20:20:02 25° W visible
26 Oct 6.4 01:41:59 12° NNE 01:43:16 12° NNE 01:45:34 10° NE visible
26 Oct 4.7 03:24:00 12° NNW 03:29:03 44° NE 03:34:28 10° SE visible
26 Oct 4.3 05:08:01 10° NW 05:13:06 34° WSW 05:18:09 10° SSW visible
26 Oct 3.9 18:19:22 10° S 18:24:48 46° ESE 18:26:28 36° ENE visible
26 Oct 5.2 20:03:55 10° WSW 20:08:29 34° WNW 20:08:29 34° WNW visible
27 Oct 6.5 01:30:12 12° NNE 01:30:12 12° NNE 01:32:10 10° NE visible
27 Oct 4.7 03:12:13 21° N 03:15:44 44° NE 03:21:08 10° SE visible
27 Oct 4.3 04:54:42 10° NW 04:59:49 35° WSW 05:04:52 10° S visible
27 Oct 4.0 18:06:06 10° S 18:11:30 45° ESE 18:14:41 23° NE visible
27 Oct 5.1 19:50:35 10° WSW 19:55:49 36° NW 19:56:42 34° NNW visible
28 Oct 6.6 01:18:39 10° NE 01:18:39 10° NE 01:18:46 10° NE visible
28 Oct 4.7 03:00:41 34° NNE 03:02:26 43° NE 03:07:48 10° SE visible
28 Oct 4.2 04:42:44 17° NW 04:46:31 35° WSW 04:51:36 10° S visible
28 Oct 4.0 17:52:49 10° S 17:58:13 44° ESE 18:02:41 15° NE visible
28 Oct 5.1 19:37:15 10° WSW 19:42:30 36° NW 19:44:40 27° N visible
29 Oct 4.7 02:49:20 42° ENE 02:49:20 42° ENE 02:54:29 10° SE visible
29 Oct 4.2 04:31:23 29° WNW 04:33:14 36° WSW 04:38:19 10° S visible
29 Oct 4.0 17:39:33 10° S 17:44:55 44° ESE 17:50:19 10° NE visible
29 Oct 5.0 19:23:56 10° WSW 19:29:12 37° NW 19:32:24 21° N visible
29 Oct 6.6 21:13:53 10° NW 21:14:23 10° NW 21:14:23 10° NW visible
30 Oct 5.3 02:38:05 29° ESE 02:38:05 29° ESE 02:41:10 10° SE visible
30 Oct 4.2 04:20:09 37° WSW 04:20:09 37° WSW 04:25:04 10° S visible
30 Oct 4.1 17:26:16 10° S 17:31:37 43° ESE 17:37:00 10° NE visible
30 Oct 5.0 19:10:36 10° WSW 19:15:53 37° NW 19:19:57 16° N visible
30 Oct 6.6 21:00:27 10° NW 21:01:52 11° NNW 21:01:55 11° NNW visible
31 Oct 6.1 02:26:52 15° ESE 02:26:52 15° ESE 02:27:50 10° ESE visible
31 Oct 4.8 04:08:55 27° SSW 04:08:55 27° SSW 04:11:47 10° S visible
31 Oct 4.1 17:13:00 10° S 17:18:20 42° ESE 17:23:41 10° NE visible
31 Oct 5.0 18:57:16 10° WSW 19:02:35 38° NW 19:07:21 13° NNE visible
31 Oct 6.5 20:47:02 10° NW 20:48:32 11° NNW 20:49:18 11° NNW visible
01 Nov 5.7 03:57:40 14° S 03:57:40 14° S 03:58:31 10° S visible
01 Nov 4.2 16:59:43 10° S 17:05:02 41° ESE 17:10:22 10° NE visible
01 Nov 5.0 18:43:57 10° WSW 18:49:16 38° NW 18:54:36 10° NNE visible
01 Nov 6.5 20:33:37 10° NW 20:35:13 11° NNW 20:36:36 10° NNW visible
